Location: Ku?niki
(51.4449°N, 17.8974°E)
Time: 16:24:51
(UTC+00:00)

XW-2A - Pass Details

Date: 02 July 2022
Orbit: 396 x 406 km, 97.2° (Epoch: 10 August)

Event Time Altitude Azimuth Distance (km) Brightness Sun altitude
Exits shadow 20:14:41 - 193° (SSW) 2,123 ? -7.9°
Reaches altitude 10° 20:16:26 10° 204° (SSW) 1,443 ? -8.1°
Maximum altitude 20:19:05 26° 264° (W) 826 ? -8.3°
Drops below altitude 10° 20:21:45 10° 324° (NW) 1,454 ? -8.5°
Sets 20:23:57 0° 337° (NNW) 2,318 ? -8.7°
